Regional Weather Roundup
Issued by NWS

Home | Current Version | Previous Version | Text Only | Print | Product List | Glossary On
Versions: 1 2 3 4 5 6 7 8 9 10 11 12 13 14 15 16 17 18 19 20 21 22 23 24 25 26 27 28 29 30 31 32 33 34 35 36 37 38 39 40 41 42 43 44 45 46 47 48 49 50
000
ASUS44 KMEG 250910
RWRTN
TENNESSEE HOURLY STATE WEATHER ROUNDUP
NATIONAL WEATHER SERVICE MEMPHIS TN
400 AM CDT SUN SEP 25 2016

TNZ002-004-019-021-049-052-054-088>092-251000-
WEST TENNESSEE

CITY           SKY/WX    TMP DP  RH WIND       PRES   REMARKS
MEMPHIS INTL   CLEAR     79  66  64 E5        30.03S
NWS MEMPHIS      N/A     70 N/A N/A MISG        N/A
JACKSON          N/A    N/A N/A N/A MISG      30.05S
DYERSBURG      CLEAR    N/A N/A N/A MISG        N/A
UNION CITY     CLEAR     66  66 100 CALM      30.04F
PARIS          CLEAR     64  64 100 CALM      30.07S
HUNTINGDON       N/A     68  66  94 CALM      30.05S
$$

TNZ008-025-027-028-033-062-065-066-251000-
NORTH MIDDLE TENNESSEE

CITY           SKY/WX    TMP DP  RH WIND       PRES   REMARKS
NASHVILLE      CLEAR     67  64  90 CALM      30.08S FOG
PORTLAND       CLEAR     64  64 100 CALM      30.08S
CLARKSVILLE    CLEAR     66  64  93 CALM      30.07F FOG
SMYRNA         CLEAR     64  63  96 CALM      30.08S
COOKEVILLE       N/A     63  63 100 CALM      30.08S VSB 1/2
GALLATIN       CLEAR     64  63  94 CALM      30.09S
CROSSVILLE     CLEAR     62  61  96 CALM      30.13F
$$

TNZ061-075-076-078-094-096-097-251000-
SOUTH MIDDLE TENNESSEE

CITY           SKY/WX    TMP DP  RH WIND       PRES   REMARKS
FAYETTEVILLE   CLOUDY    68  64  88 N6        30.07S
TULLAHOMA      CLEAR     63  61  94 CALM      30.09S
WINCHESTER     CLEAR     64  63  94 CALM      30.08S
MCMINNVILLE    CLEAR     63  63 100 CALM      30.09S
COLUMBIA         N/A    N/A N/A N/A CALM      30.06F
SHELBYVILLE    CLEAR     64  64 100 CALM      30.08S
$$

TNZ017-018-042-046-047-251000-
NORTHEAST TENNESSEE

CITY           SKY/WX    TMP DP  RH WIND       PRES   REMARKS
TRI CITIES     CLEAR     61  60  97 CALM      30.13S
ELIZABETHTON   CLEAR     63  61  94 VRB3      30.13S
$$

TNZ012-013-036-069-073-074-251000-
CENTRAL EAST TENNESSEE

CITY           SKY/WX    TMP DP  RH WIND       PRES   REMARKS
KNOXVILLE      CLEAR     66  63  90 CALM      30.07S
OAK RIDGE      CLEAR     68  65  90 CALM      30.09F
DOWNTOWN KNOXV CLEAR     66  66 100 CALM      30.08S
GATLINBURG     CLEAR     63  61  94 CALM      30.09S
MORRISTOWN     CLEAR     68  64  88 CALM      30.10R
JACKSBORO      CLEAR     63  63 100 CALM      30.13S
$$

TNZ083-085-099-251000-
SOUTHEAST TENNESSEE

CITY           SKY/WX    TMP DP  RH WIND       PRES   REMARKS
CHATTANOOGA    CLEAR     69  63  81 CALM      30.07S
$$

SKY/WX REPORTED AS FAIR MEANS FEW OR NO CLOUDS BELOW
12 THOUSAND FEET.





USA.gov is the U.S. government's official web portal to all federal, state and local government web resources and services.